Flag for Canada Weather past 2 weeks in St. Albert, Alberta, Canada

Now
25 °F

Clear.


Feels Like: 25 °F
Forecast: 9 / 25 °F
Wind: 2 mph from Southwest

Location: Edmonton Municipal

Current Time: Jan 30, 2015 at 2:49:54 AM

Latest Report: Jan 30, 2015 at 2:00 AM


Visibility: 9 mi

Pressure: 30.28 "Hg

Humidity: 80%

Dew point: 19 °F

Location of St. AlbertLocation

Historic Weather in St. Albert — Graph

°F

St. Albert temperature yesterday

Maximum temperature yesterday: 28 °F (at 3:00 PM)
Minimum temperature yesterday: 16 °F (at 3:00 AM)
Average temperature yesterday: 23 °F

Past Weeks' High & Low Weather Summary

 TemperatureHumidityPressure
High50 °F (Jan 22, 3:00 PM)100% (Jan 15, 10:48 AM)30.51 "Hg (Jan 15, 10:48 AM)
Low14 °F (Jan 21, 3:00 AM)43% (Jan 22, 3:00 PM)29.43 "Hg (Jan 16, 10:58 AM)
Average32 °F73%29.93 "Hg
* Reported Jan 15 1:00 AM — Jan 30 1:00 AM, St. Albert, Weather by CustomWeather, © 2014

Note: Actual official high and low records may vary slightly from our data, if they occured in-between our weather recording intervals... More about our weather records

Advertising

St. Albert weather history for previous 24 hours

 ConditionsComfort  
Time TempWeatherWind HumidityBarometerVisibility
1:00 AM
Jan 30
25 °FClear.2 mph80%30.29 "Hg9 mi
12:00 AM25 °FPassing clouds.3 mph80%30.27 "Hg7 mi
11:00 PM
Jan 29
23 °FPassing clouds.3 mph93%30.27 "Hg4 mi
10:00 PM25 °FPassing clouds.5 mph86%30.28 "Hg4 mi
9:00 PM25 °FClear.5 mph86%30.28 "Hg4 mi
8:00 PM27 °FClear.5 mph86%30.26 "Hg4 mi
7:00 PM27 °FClear.7 mph86%30.28 "Hg4 mi
6:00 PM27 °FClear.5 mph86%30.28 "Hg5 mi
5:00 PM28 °FScattered clouds.5 mph80%30.29 "Hg5 mi
4:00 PM28 °FPassing clouds.7 mph86%30.28 "Hg5 mi
3:00 PM28 °FPartly sunny.5 mph86%30.29 "Hg4 mi
2:00 PM27 °FLow clouds.7 mph93%30.30 "Hg4 mi
1:00 PM27 °FLow clouds.7 mph93%30.30 "Hg4 mi
12:00 PM27 °FLow clouds.7 mph93%30.33 "Hg3 mi
11:00 AM25 °FLow clouds.8 mph93%30.36 "Hg4 mi
10:00 AM25 °FLow clouds.9 mph86%30.37 "Hg4 mi
9:00 AM23 °FLow clouds.8 mph93%30.39 "Hg4 mi
8:04 AM23 °FLow clouds.7 mph93%30.28 "Hg4 mi
8:00 AM23 °FLow clouds.8 mph93%30.40 "Hg4 mi
7:00 AM21 °FLow clouds.6 mph93%30.42 "Hg5 mi
6:56 AM21 °FLow clouds.8 mph93%30.30 "Hg5 mi
6:00 AM19 °FLow clouds.6 mph93%30.44 "Hg1 mi
5:00 AM19 °FLow clouds.6 mph86%30.46 "Hg1 mi
4:56 AM18 °FLow clouds.6 mph93%30.33 "Hg1 mi
4:00 AM18 °FLow clouds.7 mph86%30.48 "Hg1 mi
3:55 AM18 °FLow clouds.7 mph86%30.35 "Hg1 mi
3:00 AM16 °FClear.7 mph86%30.50 "Hg9 mi
2:00 AM18 °FClear.7 mph79%30.50 "Hg9 mi
Weather by CustomWeather, © 2014

See weather overviewHow to use our weather pages